sat.trackr.live / text

‹ back to catalog

STARLINK-36461

NORAD 67316 · 2026-002M

PAYLOAD ACTIVE UNKNOWN

§ Identity

Operator
Country
US
Launch date
2026-01-04
Launch site
AFETR
Launch vehicle
Mass (kg)
RCS (m²)

Purposes: comms

External: N2YO · Heavens-Above · Gunter

§ Orbital elements

Epoch: 2026-09-19T10:33:18.461664Z

Period
94.27 min
Inclination
43.0012°
Eccentricity
0.0001342
Mean motion
15.27587178 rev/d
Perigee alt
482.1 km
Apogee alt
483.9 km
Semi-major
6,861.2 km
B*
3.8514e-4
RAAN
310.7928°
Arg perigee
266.9364°
Mean anomaly
93.1334°
Rev number
4,087

§ Raw data

STARLINK-364611 67316U 26002M   26262.43979701  .00010353  00000+0  38514-3 0  99962 67316  43.0012 310.7928 0001342 266.9364  93.1334 15.27587178 40874

JSON: /api/v1/satellites/67316 · /tle

For live sub-satellite position, see the globe view (requires WebGL).

§ Visibility from observer

Set your observer location to see the next 7 days of passes ≥ 10°. The values pass through the URL so the page stays shareable.

No JS? Fill the form by hand. The geolocation button needs JavaScript.